Weather Roundup
Issued by NWS Springfield, MO

Home | Current Version | Previous Version | Text Only | Print | Product List | Glossary On
Versions: 1 2 3 4 5 6 7 8 9 10 11 12 13 14 15 16 17 18 19 20 21 22 23 24 25 26 27 28 29 30 31 32 33 34 35 36 37 38 39 40 41 42 43 44 45 46 47 48 49 50
000
NZUS99 KSGF 240807
HRRSGF

HOURLY WEATHER
NATIONAL WEATHER SERVICE SPRINGFIELD MO
300 AM CDT WED MAY 24 2017

......SGF CWA......

CITY           SKY/WX    TMP DP  RH WIND       PRES   REMARKS
SPRINGFIELD    MOCLDY    53  49  86 NW7       29.71F
JOPLIN         CLOUDY    55  49  80 NW7       29.75F
WEST PLAINS    PTCLDY    51  48  89 NW5       29.68F
ROLLA          CLEAR     49  47  93 NW6       29.66F
OSAGE BEACH    CLOUDY    54  48  80 VRB3      29.70F
BRANSON        CLOUDY    54  48  82 NW5       29.72F

......SURROUNDING SGF CWA......

CITY           SKY/WX    TMP DP  RH WIND       PRES   REMARKS
CHANUTE        CLOUDY    54  46  74 NW10      29.78F
PARSONS        CLOUDY    54  47  77 NW8       29.79F
COFFEYVILLE    CLOUDY    55  48  77 NW9       29.79F
EMPORIA        CLEAR     48  45  89 NW6       29.80F
GROVE OK       CLOUDY    55  50  82 NW6       29.77F
ROGERS AR      CLEAR     49  47  93 NW6       29.74F
SILOAM SPRINGS CLEAR     48  43  81 NW8       29.75F
HARRISON AR    MOCLDY    52  48  86 NW6       29.71F
NEAR YELLVILLE CLEAR     54  46  76 CALM      29.67S

......KANSAS AND MISSOURI......

CITY           SKY/WX    TMP DP  RH WIND       PRES   REMARKS
KANSAS CTY INT CLEAR     49  46  90 NW8       29.74F
DOWNTOWN KC    CLEAR     50  47  89 NW3       29.74F
COLUMBIA       CLOUDY    53  49  86 NW8       29.68F
SEDALIA        MOCLDY    54  52  93 NW10      29.72F
ST JOSEPH      CLEAR     50  48  93 NW12      29.75F
ST LOUIS       PTCLDY    55  50  83 NW5       29.64F
SPIRIT OF STL  CLEAR     51  50  96 W3        29.65F
KIRKSVILLE     PTCLDY    45  44  97 W8        29.69F
WICHITA        PTCLDY    49  44  83 NW9       29.85F
TOPEKA         MOCLDY    50  47  89 W7        29.78F
OLATHE         CLEAR     48  48 100 NW7       29.74F

......TENNESSEE......

CITY           SKY/WX    TMP DP  RH WIND       PRES   REMARKS
MEMPHIS        LGT RAIN  61  60  97 N7        29.60F
NASHVILLE      CLOUDY    66  60  81 CALM      29.58F

......ARKANSAS.......

CITY           SKY/WX    TMP DP  RH WIND       PRES   REMARKS
FAYETTEVILLE   CLEAR     50  48  93 W5        29.75F
FT SMITH       CLEAR     56  47  71 W10       29.75F
LITTLE ROCK    CLOUDY    60  60 100 W7        29.68F

......OKLAHOMA.......

CITY           SKY/WX    TMP DP  RH WIND       PRES   REMARKS
TULSA          MOCLDY    55  47  74 NW9       29.79F
PONCA CITY     PTCLDY    50  43  77 VRB5      29.85F
MCALESTER      CLEAR     56  47  71 NW7       29.81F
OKLAHOMA CITY  PTCLDY    51  45  79 NW8       29.87F

......IOWA............

CITY           SKY/WX    TMP DP  RH WIND       PRES   REMARKS
DES MOINES     LGT RAIN  52  50  93 N8        29.69F
QUAD CITIES    CLEAR     48  45  89 CALM      29.64F

......ILLINOIS........

CITY           SKY/WX    TMP DP  RH WIND       PRES   REMARKS
QUINCY         CLEAR     49  47  93 NW5       29.65F
CHICAGO        LGT RAIN  54  52  93 NE7       29.62F



USA.gov is the U.S. government's official web portal to all federal, state and local government web resources and services.